Other Public Products
Issued by NWS Grand Forks, ND

Home | Current Version | Previous Version | Text Only | Print | Product List | Glossary Off
Versions: 1 2 3 4 5 6 7 8 9 10 11 12 13 14 15 16 17 18 19 20 21 22 23 24 25 26 27 28 29 30 31 32 33 34 35 36 37 38 39 40 41 42 43 44 45 46 47 48 49 50

000
FPUS83 KFGF 231031
OPUFGF
PRAIRIE TO PINES WEATHER ROUNDUP
NATIONAL WEATHER SERVICE EASTERN NORTH DAKOTA/GRAND FORKS ND
500 AM CDT WED AUG 23 2017

 **SATELLITE DATA USED TO AUGMENT SKY COVER AT AUTOMATED STATIONS**
 *****  WEATHER ACROSS EASTERN NORTH DAKOTA  *****

CITY           SKY/WX    TMP DP  RH WIND       PRES   REMARKS
GRAND FORKS    FAIR      46  44  93 W3        30.09S
GRAND FORKS AF FAIR      45  44  96 CALM      30.09S
GRAND CITY NWS NOT AVBL
BUXTON           N/A     50  47  92 W2          N/A
DEVILS LAKE    MOCLDY    57  50  77 SE5       30.09F
FARGO          FAIR      48  45  89 W3        30.09F
WAHPETON ARPT  FAIR      46  43  87 SW3       30.11S
$$

 *****  WEATHER ACROSS CENTRAL AND WESTERN NORTH DAKOTA  *****

CITY           SKY/WX    TMP DP  RH WIND       PRES   REMARKS
JAMESTOWN      FAIR      48  45  89 SE3       30.09F
BISMARCK       FAIR      50  47  89 CALM      30.10F
MINOT          FAIR      59  46  62 SE3       30.03F
MINOT AFB      FAIR      54  46  74 S7        30.02F
GARRISON         N/A     54  47  77 S3        30.06F
WILLISTON      FAIR      57  42  57 SW6       30.04F
DICKINSON      FAIR      52  42  69 S9        30.08F
HETTINGER      FAIR      55  44  66 SE10      30.10F
$$

 *****  OTHER OBSERVATIONS NORTHEAST NORTH DAKOTA  *****

CITY           SKY/WX    TMP DP  RH WIND       PRES   REMARKS
WALHALLA       FAIR      50  50 100 CALM      30.09S
LANGDON        PTSUNNY   46  46 100 S6        30.10S
CAVALIER       CLOUDY    50  48  93 CALM      30.08S
GRAFTON        FAIR      46  46 100 CALM      30.11S
CANDO          CLOUDY    50  50 100 E6        30.09F
FORT TOTTEN      N/A     55  44  66 SE3       29.95S
ROLLA          FAIR      45  43  93 CALM      30.08S
RUGBY          FAIR      52  48  87 S5        30.06F
 ***** THE ABOVE OBSERVATIONS ARE NON NWS ARE NOT QUALITY
        CONTROLLED AND MAY MIS-REPORT RAIN FOR SNOW...
$$

 *****  OTHER OBSERVATIONS SOUTHEAST NORTH DAKOTA *****

CITY           SKY/WX    TMP DP  RH WIND       PRES   REMARKS
COOPERSTOWN    FAIR      45  45 100 CALM      30.11S
VALLEY CITY      N/A     46  46 100 CALM      30.12F
OAKES          NOT AVBL
GWINNER        SUNNY     50  48  93 W7        30.11S
SHEYENNE NWR     N/A     45  45 100 CALM      29.95S
BUFFALO          N/A     49  44  84 NW2         N/A
WYNDMERE       NOT AVBL
 ***** THE ABOVE OBSERVATIONS ARE NON NWS ARE NOT QUALITY
       CONTROLLED AND MAY MIS-REPORT RAIN FOR SNOW...
$$

  *****  WEATHER ACROSS NORTHERN MINNESOTA  *****

CITY           SKY/WX    TMP DP  RH WIND       PRES   REMARKS
FLAG ISLAND      N/A     54  52  94 W3        30.06S
WARROAD        FAIR      45  41  87 NW3       30.08S
ROSEAU         HAZE      45  39  81 CALM      30.08S VSB<1/4
HALLOCK        CLOUDY    45  43  93 CALM      30.09R
THF RVR FALLS  FAIR      45  45 100 CALM      30.10S FOG
HALSTAD          N/A     44  41  88 CALM        N/A
FOSSTON        FAIR      43  39  87 CALM      30.10F FOG
BAUDETTE       FAIR      47  46  97 W3        30.07S
WASKISH        FAIR      45  45 100 CALM      30.08S
CROOKSTON      FAIR      46  45  93 CALM      30.10F
$$
  *****  WEATHER ACROSS CENTRAL AND WEST MINNESOTA  *****

CITY           SKY/WX    TMP DP  RH WIND       PRES   REMARKS
BEMIDJI        FAIR      45  45 100 W3        30.08F
PARK RAPIDS    FAIR      47  43  86 CALM      30.09S
WADENA         FAIR      46  46 100 CALM      30.10R
DETROIT LAKES  FAIR      54  48  82 CALM      30.11S
MOORHEAD       FAIR      46  43  87 CALM      30.10F
FERGUS FALLS   FAIR      48  48 100 CALM      30.11S
ELBOW LAKE     FAIR      51  49  94 CALM      30.11S
MORRIS MN      FAIR      48  46  93 NW5       30.10F
STAPLES        FAIR      46  45  93 CALM      30.09S
WHEATON        FAIR      54  45  71 W3        30.13S
$$
  *****  WEATHER ELSEWHERE ACROSS MINNESOTA  *****

CITY           SKY/WX    TMP DP  RH WIND       PRES   REMARKS
DULUTH         FAIR      49  49 100 NW6       30.04R
INTRNTL FALLS  CLOUDY    51  49  92 NW3       30.05S
ELY            CLOUDY    50  50 100 CALM      30.03S
CLOQUET        FAIR      48  46  93 NW6       30.05S
BRAINERD       FAIR      47  47 100 CALM      30.08S FOG
HIBBING        FAIR      44  44 100 N5        30.05S
ALEXANDRIA     FAIR      52  49  89 W6        30.12
SAINT CLOUD    FAIR      50  48  93 NW3       30.09R
MINNEAPOLIS    FAIR      59  49  69 CALM      30.08R
$$

  *****  WEATHER ACROSS SOUTH DAKOTA  *****

CITY           SKY/WX    TMP DP  RH WIND       PRES   REMARKS
SIOUX FALLS    FAIR      52  52 100 CALM      30.14F
BROOKINGS      FAIR      51  48  89 CALM      30.15F
WATERTOWN      FAIR      50  49  96 CALM      30.13F
HURON          FAIR      53  51  93 E5        30.12F
SISSETON         N/A     48  46  93 CALM      30.10F
ABERDEEN       FAIR      44  44 100 S5        30.12F
MITCHELL       FAIR      54  52  93 E3        30.13F
PIERRE         FAIR      59  51  75 E12       30.07F
MOBRIDGE       FAIR      57  46  66 E8        30.08F
RAPID CITY     FAIR      57  48  72 CALM      30.06F
$$

  *****  SOME WEATHER IN NEARBY STATES *****

CITY           SKY/WX    TMP DP  RH WIND       PRES   REMARKS
GLASGOW MT     FAIR      60  36  40 E10       30.00F
GREAT FALLS MT FAIR      55  32  41 SW9       30.02S
CHEYENNE WY    FAIR      56  45  66 CALM      30.23S
SCOTTSBLUFF NE FAIR      58  53  84 E9        30.12F
OMAHA NE       FAIR      57  53  86 CALM      30.16F
DES MOINES IA  FAIR      56  53  90 CALM      30.13F
DAVENPORT IA   FAIR      51  49  92 W5        30.10S
CHICAGO IL     FAIR      61  51  70 W8        30.01S
EAU CLAIRE WI  FAIR      53  49  86 NW5       30.04S
LA CROSSE WI   FAIR      56  53  90 CALM      30.05S
$$

  *****  SOME NATIONAL WEATHER *****

CITY           SKY/WX    TMP DP  RH WIND       PRES   REMARKS
LA GUARDIA NY  MOCLDY    76  71  85 W9        29.75S
RALEIGH NC     FAIR      76  73  91 SW8       29.89S
ATLANTA GA     FAIR      75  71  87 W6        29.98S
NEW ORLEANS LA MOCLDY    81  77  88 N3        29.98S
OKLAHOMA CITY  MOCLDY    71  69  93 NE8       30.08S
ALBUQUERQUE NM FAIR      66  60  81 E7        30.30R
SALT LAKE CITY MOCLDY    74  52  46 SE9       30.14S
LOS ANGELES CA MOCLDY    68  64  87 W6        29.98S
BOISE ID       FAIR      70  41  34 SE8       29.99S
SEATTLE WA     FAIR      60  57  89 S3        30.05F
$$

*** WEATHER ACROSS MANITOBA...SASKATCHEWAN AND ONTARIO ***
                ***ONTARIO***

CITY           SKY/WX    TMP DP  RH WIND       PRES   REMARKS
GERALDTON      CLOUDY    48  45  87 NW12G18   29.85R
THUNDER BAY    CLEAR     46  45  93 W6        29.96R
SIOUX LOOKOUT  CLEAR     45  43  93 N5        30.04R
TORONTO        PTCLDY    57  52  82 W12       29.82R
BIG TROUT LK   CLEAR     37  36  93 N6        30.03S
PICKLE LAKE    NOT AVBL
DRYDEN         CLEAR     46  45  93 NW6       30.05S
KENORA         PTCLDY    48  46  93 N5        30.07S
$$
                *** MANITOBA***

CITY           SKY/WX    TMP DP  RH WIND       PRES   REMARKS
BRANDON        MOCLDY    55  48  76 SE7       30.04F
DAUPHIN        LGT RAIN  55  54  94 VRB2      30.04F
ISLAND LAKE    CLEAR     46  45  93 N2        30.10
PILOT MOUND      N/A     50  48  93 S3          N/A
THE PAS        CLOUDY    57  52  82 SE8       30.05S
THOMPSON       CLEAR     32  30  93 VRB2      30.12
WINNIPEG       MOCLDY    48  48 100 NW3       30.09R
LYNN LAKE      CLEAR     43  43 100 CALM      30.10S FOG
CHURCHILL      CLEAR     45  39  81 NW8       30.08F
GILLAM         CLEAR     36  34  93 NE2       30.11R
$$
                ***SASKATCHEWAN***

CITY           SKY/WX    TMP DP  RH WIND       PRES   REMARKS
ESTEVAN        PTCLDY    46  43  87 CALM      30.02F
KINDERSLEY     CLEAR     52  48  87 NE9       29.97F
LLOYDMINSTER   FOG       52  50  93 E5        29.99F VSB 3/4
PRINCE ALBERT  PTCLDY    48  45  87 CALM      30.02F
REGINA         CLEAR     50  41  71 SE9       29.97F
YORKTON        PTCLDY    52  48  87 SE3       29.99F



USA.gov is the U.S. government's official web portal to all federal, state and local government web resources and services.